LNI697 WARR-WIII

Flight info

Callsign LNI697
Flight time 1h 34m
Altitude 34000
Route LASEM T2 KALUT T6 KURUS
Aircraft B738/M-SDE2E3FGHIRWXY/LB1

Departure

Time 2026-04-30 11:16
Airport Juanda International Airport (WARR)

Arrival

Time 2026-04-30 12:51
Airport Soekarno-Hatta International Airport (WIII)
Time Latitude Longitude Altitude Speed Heading
2026-04-30 10:36 -7.37592 112.79469 8 ft 0 kts
2026-04-30 11:07 -7.37602 112.79467 8 ft 4 kts
2026-04-30 11:07 -7.37629 112.79463 8 ft 4 kts
2026-04-30 11:07 -7.37651 112.79459 8 ft 4 kts 15°
2026-04-30 11:07 -7.37671 112.79447 10 ft 4 kts 71°
2026-04-30 11:08 -7.37673 112.79423 8 ft 3 kts 99°
2026-04-30 11:08 -7.37673 112.79420 8 ft 0 kts 99°
2026-04-30 11:11 -7.37673 112.79422 8 ft 2 kts 99°
2026-04-30 11:12 -7.37693 112.79442 10 ft 8 kts 153°
2026-04-30 11:12 -7.37763 112.79440 10 ft 13 kts 189°
2026-04-30 11:12 -7.37863 112.79423 9 ft 15 kts 189°
2026-04-30 11:12 -7.37934 112.79475 8 ft 14 kts 103°
2026-04-30 11:13 -7.37950 112.79569 8 ft 13 kts 99°
2026-04-30 11:13 -7.37964 112.79659 8 ft 13 kts 99°
2026-04-30 11:13 -7.37979 112.79754 8 ft 14 kts 99°
2026-04-30 11:13 -7.37997 112.79859 8 ft 16 kts 99°
2026-04-30 11:14 -7.38014 112.79972 8 ft 16 kts 98°
2026-04-30 11:14 -7.38075 112.80040 7 ft 7 kts 171°
2026-04-30 11:14 -7.38081 112.80040 7 ft 0 kts 181°
2026-04-30 11:15 -7.38097 112.80038 9 ft 5 kts 187°
2026-04-30 11:15 -7.38164 112.80029 6 ft 14 kts 187°
2026-04-30 11:15 -7.38193 112.80003 6 ft 5 kts 275°
2026-04-30 11:16 -7.38166 112.79825 7 ft 65 kts 279°
2026-04-30 11:16 -7.38048 112.79086 12 ft 148 kts 279°
2026-04-30 11:16 -7.37854 112.77858 376 ft 190 kts 276°
2026-04-30 11:16 -7.37677 112.76581 1665 ft 179 kts 276°
2026-04-30 11:17 -7.37501 112.75286 2426 ft 194 kts 279°
2026-04-30 11:17 -7.37260 112.73830 2761 ft 225 kts 279°
2026-04-30 11:17 -7.36979 112.72182 3065 ft 250 kts 279°
2026-04-30 11:17 -7.36676 112.70394 3462 ft 270 kts 279°
2026-04-30 11:18 -7.36361 112.68515 4357 ft 273 kts 279°
2026-04-30 11:18 -7.35729 112.64690 6181 ft 280 kts 278°
2026-04-30 11:18 -7.35408 112.62735 7000 ft 285 kts 278°
2026-04-30 11:19 -7.35087 112.60772 7789 ft 290 kts 278°
2026-04-30 11:19 -7.34756 112.58747 8615 ft 294 kts 279°
2026-04-30 11:19 -7.34420 112.56693 9436 ft 299 kts 279°
2026-04-30 11:19 -7.34065 112.54602 10187 ft 304 kts 282°
2026-04-30 11:20 -7.33221 112.52670 10897 ft 308 kts 304°
2026-04-30 11:20 -7.31971 112.50862 11408 ft 323 kts 306°
2026-04-30 11:20 -7.30633 112.48956 11844 ft 338 kts 306°
2026-04-30 11:20 -7.29276 112.47019 12499 ft 344 kts 306°
2026-04-30 11:21 -7.27892 112.45029 13259 ft 347 kts 306°
2026-04-30 11:21 -7.26499 112.43016 13969 ft 350 kts 306°
2026-04-30 11:21 -7.25099 112.40986 14616 ft 354 kts 306°
2026-04-30 11:21 -7.23702 112.38957 15264 ft 357 kts 306°
2026-04-30 11:22 -7.22269 112.36876 15785 ft 366 kts 306°
2026-04-30 11:22 -7.20787 112.34734 16202 ft 376 kts 307°
2026-04-30 11:22 -7.19018 112.32824 16778 ft 378 kts 321°
2026-04-30 11:22 -7.16979 112.31132 17452 ft 379 kts 323°
2026-04-30 11:23 -7.14912 112.29471 18072 ft 382 kts 323°
2026-04-30 11:23 -7.12819 112.27783 18599 ft 386 kts 323°
2026-04-30 11:23 -7.08646 112.24351 19638 ft 392 kts 322°
2026-04-30 11:24 -7.06537 112.22594 20141 ft 395 kts 322°
2026-04-30 11:24 -7.04414 112.20818 20651 ft 398 kts 322°
2026-04-30 11:24 -7.02272 112.19025 21148 ft 401 kts 322°
2026-04-30 11:25 -6.97935 112.15398 22086 ft 408 kts 322°
2026-04-30 11:25 -6.95814 112.13484 22550 ft 412 kts 312°
2026-04-30 11:25 -6.92583 112.08690 23498 ft 418 kts 303°
2026-04-30 11:26 -6.89418 112.03694 24236 ft 424 kts 304°
2026-04-30 11:26 -6.87833 112.01224 24622 ft 426 kts 304°
2026-04-30 11:26 -6.86208 111.98715 25002 ft 428 kts 304°
2026-04-30 11:27 -6.84568 111.96198 25362 ft 431 kts 304°
2026-04-30 11:27 -6.82919 111.93676 25726 ft 433 kts 304°
2026-04-30 11:27 -6.81246 111.91122 26081 ft 436 kts 304°
2026-04-30 11:27 -6.79574 111.88571 26443 ft 438 kts 304°
2026-04-30 11:28 -6.76200 111.83426 27147 ft 442 kts 304°
2026-04-30 11:28 -6.74521 111.80863 27577 ft 441 kts 304°
2026-04-30 11:28 -6.72830 111.78283 28077 ft 440 kts 304°
2026-04-30 11:29 -6.71145 111.75710 28603 ft 438 kts 304°
2026-04-30 11:29 -6.69499 111.73184 29091 ft 434 kts 302°
2026-04-30 11:29 -6.66153 111.68089 29677 ft 439 kts 304°
2026-04-30 11:30 -6.62782 111.62955 30536 ft 436 kts 304°
2026-04-30 11:30 -6.61162 111.60427 30996 ft 434 kts 301°
2026-04-30 11:30 -6.59678 111.57782 31482 ft 431 kts 298°
2026-04-30 11:31 -6.58309 111.55100 31942 ft 430 kts 297°
2026-04-30 11:31 -6.56980 111.52406 32314 ft 430 kts 296°
2026-04-30 11:31 -6.55621 111.49724 32677 ft 430 kts 297°
2026-04-30 11:31 -6.54267 111.47041 33070 ft 428 kts 297°
2026-04-30 11:32 -6.52919 111.44415 33437 ft 426 kts 298°
2026-04-30 11:32 -6.51535 111.41758 33730 ft 427 kts 297°
2026-04-30 11:32 -6.50234 111.39075 33899 ft 427 kts 297°
2026-04-30 11:33 -6.46077 111.31174 33910 ft 430 kts 298°
2026-04-30 11:33 -6.43271 111.25793 33889 ft 438 kts 298°
2026-04-30 11:34 -6.40457 111.20250 33895 ft 451 kts 296°
2026-04-30 11:34 -6.37452 111.14661 33904 ft 463 kts 298°
2026-04-30 11:35 -6.34492 111.08851 33880 ft 472 kts 297°
2026-04-30 11:35 -6.31328 111.03021 33860 ft 476 kts 301°
2026-04-30 11:36 -6.28146 110.97315 33888 ft 465 kts 299°
2026-04-30 11:36 -6.25069 110.91556 33890 ft 468 kts 298°
2026-04-30 11:37 -6.21999 110.85750 33893 ft 469 kts 298°
2026-04-30 11:37 -6.18922 110.79991 33904 ft 469 kts 299°
2026-04-30 11:38 -6.15809 110.74207 33898 ft 469 kts 299°
2026-04-30 11:38 -6.12704 110.68440 33896 ft 470 kts 299°
2026-04-30 11:39 -6.09616 110.62699 33903 ft 470 kts 299°
2026-04-30 11:39 -6.06492 110.56903 33911 ft 469 kts 298°
2026-04-30 11:40 -6.03364 110.51119 33902 ft 470 kts 299°
2026-04-30 11:40 -6.00280 110.45362 33895 ft 468 kts 300°
2026-04-30 11:41 -5.97469 110.39459 33887 ft 469 kts 287°
2026-04-30 11:41 -5.96363 110.33063 33910 ft 467 kts 273°
2026-04-30 11:42 -5.96319 110.26461 33913 ft 472 kts 270°
2026-04-30 11:42 -5.96422 110.19836 33900 ft 472 kts 269°
2026-04-30 11:43 -5.96511 110.13263 33925 ft 471 kts 268°
2026-04-30 11:43 -5.96575 110.06644 33908 ft 473 kts 271°
2026-04-30 11:44 -5.96553 110.00072 33917 ft 474 kts 270°
2026-04-30 11:44 -5.96569 109.93454 33892 ft 470 kts 270°
2026-04-30 11:45 -5.96462 109.86877 33878 ft 469 kts 270°
2026-04-30 11:45 -5.96532 109.81448 33889 ft 467 kts 270°
2026-04-30 11:46 -5.96509 109.74971 33903 ft 464 kts 271°
2026-04-30 11:46 -5.96437 109.68406 33904 ft 469 kts 271°
2026-04-30 11:47 -5.96434 109.61845 33906 ft 477 kts 270°
2026-04-30 11:47 -5.96448 109.55151 33901 ft 474 kts 270°
2026-04-30 11:48 -5.96450 109.48599 33904 ft 468 kts 270°
2026-04-30 11:48 -5.96441 109.42053 33909 ft 469 kts 270°
2026-04-30 11:49 -5.96422 109.35464 33919 ft 470 kts 270°
2026-04-30 11:49 -5.96426 109.28933 33910 ft 471 kts 270°
2026-04-30 11:50 -5.96415 109.22342 33912 ft 470 kts 270°
2026-04-30 11:50 -5.96395 109.15795 33905 ft 471 kts 270°
2026-04-30 11:51 -5.96391 109.09183 33898 ft 474 kts 269°
2026-04-30 11:51 -5.96396 109.02611 33929 ft 469 kts 271°
2026-04-30 11:52 -5.96425 108.96026 33892 ft 469 kts 269°
2026-04-30 11:52 -5.96278 108.89591 33925 ft 470 kts 272°
2026-04-30 11:53 -5.96218 108.83359 33943 ft 473 kts 270°
2026-04-30 11:53 -5.96132 108.76762 33903 ft 471 kts 270°
2026-04-30 11:54 -5.96055 108.70217 33903 ft 467 kts 269°
2026-04-30 11:54 -5.96179 108.63702 33903 ft 467 kts 269°
2026-04-30 11:55 -5.96208 108.57179 33907 ft 467 kts 270°
2026-04-30 11:55 -5.96200 108.50640 33900 ft 468 kts 270°
2026-04-30 11:56 -5.96210 108.44121 33921 ft 467 kts 269°
2026-04-30 11:56 -5.96233 108.37599 33914 ft 466 kts 270°
2026-04-30 11:57 -5.96227 108.31111 33867 ft 469 kts 270°
2026-04-30 11:57 -5.96196 108.27804 33314 ft 475 kts 270°
2026-04-30 11:57 -5.96181 108.24484 32838 ft 471 kts 270°
2026-04-30 11:58 -5.96181 108.21195 32351 ft 467 kts 270°
2026-04-30 11:58 -5.96187 108.17979 31878 ft 462 kts 270°
2026-04-30 11:58 -5.96189 108.14759 31400 ft 457 kts 270°
2026-04-30 11:58 -5.96186 108.11586 30936 ft 452 kts 270°
2026-04-30 11:59 -5.96180 108.08443 30481 ft 447 kts 270°
2026-04-30 11:59 -5.96176 108.05354 30037 ft 443 kts 270°
2026-04-30 11:59 -5.96172 108.02263 29514 ft 440 kts 270°
2026-04-30 11:59 -5.96168 107.99196 28993 ft 436 kts 270°
2026-04-30 12:00 -5.96166 107.96150 28478 ft 433 kts 270°
2026-04-30 12:00 -5.96166 107.93155 27979 ft 430 kts 269°
2026-04-30 12:00 -5.96167 107.90151 27486 ft 428 kts 270°
2026-04-30 12:00 -5.96168 107.87164 27003 ft 426 kts 270°
2026-04-30 12:01 -5.96169 107.84213 26531 ft 424 kts 270°
2026-04-30 12:01 -5.96169 107.81247 26062 ft 422 kts 270°
2026-04-30 12:01 -5.96169 107.78298 25602 ft 421 kts 270°
2026-04-30 12:01 -5.96168 107.75363 25157 ft 419 kts 270°
2026-04-30 12:02 -5.96168 107.72434 24985 ft 417 kts 270°
2026-04-30 12:02 -5.96168 107.69545 24943 ft 419 kts 270°
2026-04-30 12:02 -5.96167 107.66616 24913 ft 417 kts 270°
2026-04-30 12:02 -5.96167 107.63701 24911 ft 416 kts 270°
2026-04-30 12:03 -5.96167 107.60827 24913 ft 417 kts 270°
2026-04-30 12:03 -5.96168 107.54998 24911 ft 417 kts 270°
2026-04-30 12:03 -5.96169 107.52081 24914 ft 417 kts 270°
2026-04-30 12:04 -5.96169 107.49159 24907 ft 417 kts 270°
2026-04-30 12:04 -5.96169 107.46236 24913 ft 417 kts 270°
2026-04-30 12:04 -5.96169 107.43315 24915 ft 417 kts 270°
2026-04-30 12:04 -5.96170 107.40439 24915 ft 417 kts 270°
2026-04-30 12:05 -5.96173 107.37527 24913 ft 417 kts 270°
2026-04-30 12:05 -5.96173 107.34610 24904 ft 417 kts 270°
2026-04-30 12:05 -5.96171 107.31667 24448 ft 421 kts 271°
2026-04-30 12:05 -5.95754 107.28800 23988 ft 419 kts 289°
2026-04-30 12:06 -5.94425 107.26201 23571 ft 415 kts 308°
2026-04-30 12:06 -5.92407 107.24176 23075 ft 408 kts 326°
2026-04-30 12:06 -5.89937 107.22876 22572 ft 402 kts 343°
2026-04-30 12:06 -5.87213 107.22368 22023 ft 396 kts
2026-04-30 12:07 -5.84504 107.22682 21489 ft 391 kts 17°
2026-04-30 12:07 -5.82027 107.23762 20963 ft 386 kts 34°
2026-04-30 12:07 -5.80009 107.25472 20437 ft 381 kts 50°
2026-04-30 12:07 -5.78542 107.27692 19937 ft 378 kts 65°
2026-04-30 12:08 -5.77659 107.30166 19428 ft 375 kts 79°
2026-04-30 12:08 -5.77429 107.32742 18952 ft 373 kts 89°
2026-04-30 12:08 -5.77449 107.35341 18468 ft 372 kts 91°
2026-04-30 12:08 -5.77499 107.37934 18037 ft 368 kts 90°
2026-04-30 12:09 -5.77524 107.40472 17824 ft 357 kts 90°
2026-04-30 12:09 -5.77529 107.42941 17573 ft 348 kts 89°
2026-04-30 12:09 -5.77742 107.45327 17066 ft 348 kts 104°
2026-04-30 12:09 -5.78680 107.47565 16608 ft 347 kts 119°
2026-04-30 12:10 -5.80114 107.49514 16118 ft 348 kts 131°
2026-04-30 12:10 -5.81956 107.51088 15654 ft 349 kts 145°
2026-04-30 12:10 -5.84151 107.52158 15177 ft 351 kts 160°
2026-04-30 12:10 -5.86564 107.52594 14716 ft 354 kts 176°
2026-04-30 12:11 -5.88998 107.52351 14267 ft 356 kts 192°
2026-04-30 12:11 -5.91305 107.51435 13829 ft 358 kts 208°
2026-04-30 12:11 -5.93293 107.49919 13343 ft 359 kts 224°
2026-04-30 12:11 -5.94792 107.47923 12980 ft 356 kts 239°
2026-04-30 12:12 -5.95778 107.45715 12907 ft 343 kts 251°
2026-04-30 12:12 -5.96206 107.43413 12818 ft 326 kts 266°
2026-04-30 12:12 -5.96244 107.41157 12432 ft 318 kts 270°
2026-04-30 12:12 -5.96215 107.38978 12043 ft 311 kts 270°
2026-04-30 12:13 -5.96188 107.36828 11660 ft 305 kts 270°
2026-04-30 12:13 -5.96176 107.34712 11293 ft 298 kts 269°
2026-04-30 12:13 -5.96173 107.32672 10942 ft 293 kts 269°
2026-04-30 12:13 -5.96077 107.30642 10565 ft 287 kts 282°
2026-04-30 12:14 -5.95766 107.28651 10040 ft 289 kts 272°
2026-04-30 12:14 -5.95783 107.26635 9554 ft 287 kts 266°
2026-04-30 12:14 -5.95856 107.24652 9240 ft 286 kts 268°
2026-04-30 12:14 -5.95906 107.22663 9006 ft 282 kts 268°
2026-04-30 12:15 -5.95948 107.20695 8761 ft 278 kts 268°
2026-04-30 12:15 -5.95985 107.18801 8512 ft 270 kts 268°
2026-04-30 12:15 -5.96019 107.16949 8260 ft 261 kts 269°
2026-04-30 12:15 -5.96051 107.15138 7980 ft 255 kts 269°
2026-04-30 12:16 -5.96083 107.13379 7711 ft 249 kts 269°
2026-04-30 12:16 -5.96112 107.11675 7450 ft 244 kts 269°
2026-04-30 12:16 -5.96194 107.09973 7195 ft 243 kts 258°
2026-04-30 12:16 -5.96742 107.08388 6995 ft 237 kts 247°
2026-04-30 12:17 -5.97968 107.05372 6454 ft 228 kts 248°
2026-04-30 12:17 -5.98550 107.03914 6178 ft 226 kts 248°
2026-04-30 12:17 -5.99128 107.02450 5879 ft 225 kts 249°
2026-04-30 12:18 -5.99689 107.00989 5594 ft 223 kts 249°
2026-04-30 12:18 -6.00250 106.99546 5300 ft 220 kts 249°
2026-04-30 12:18 -6.00812 106.98119 5009 ft 218 kts 248°
2026-04-30 12:18 -6.01365 106.96724 4724 ft 216 kts 248°
2026-04-30 12:19 -6.01917 106.95336 4504 ft 211 kts 248°
2026-04-30 12:19 -6.02460 106.93972 4276 ft 209 kts 248°
2026-04-30 12:19 -6.02996 106.92625 4115 ft 207 kts 248°
2026-04-30 12:19 -6.03533 106.91277 4081 ft 207 kts 248°
2026-04-30 12:20 -6.04057 106.89961 4002 ft 207 kts 248°
2026-04-30 12:20 -6.04601 106.88601 3896 ft 202 kts 248°
2026-04-30 12:20 -6.05113 106.87309 3778 ft 199 kts 248°
2026-04-30 12:20 -6.05631 106.86021 3732 ft 198 kts 246°
2026-04-30 12:21 -6.06167 106.84707 3493 ft 204 kts 248°
2026-04-30 12:21 -6.06660 106.83391 3246 ft 203 kts 250°
2026-04-30 12:21 -6.07207 106.82089 2986 ft 201 kts 244°
2026-04-30 12:21 -6.07755 106.80793 2729 ft 201 kts 251°
2026-04-30 12:22 -6.08199 106.79469 2465 ft 198 kts 246°
2026-04-30 12:22 -6.08776 106.78235 2200 ft 194 kts 249°
2026-04-30 12:22 -6.09223 106.76996 1972 ft 185 kts 249°
2026-04-30 12:22 -6.09674 106.75825 1727 ft 173 kts 249°
2026-04-30 12:23 -6.10137 106.74733 1564 ft 173 kts 246°
2026-04-30 12:23 -6.10585 106.73595 1309 ft 174 kts 249°
2026-04-30 12:23 -6.10999 106.72495 1089 ft 162 kts 247°
2026-04-30 12:23 -6.11421 106.71467 897 ft 157 kts 247°
2026-04-30 12:24 -6.11829 106.70447 697 ft 156 kts 246°
2026-04-30 12:24 -6.12247 106.69433 543 ft 161 kts 250°
2026-04-30 12:24 -6.12631 106.68402 334 ft 156 kts 244°
2026-04-30 12:24 -6.13061 106.67324 916 ft 166 kts 245°
2026-04-30 12:25 -6.13550 106.66137 1676 ft 198 kts 247°
2026-04-30 12:25 -6.14048 106.64894 2958 ft 190 kts 248°
2026-04-30 12:25 -6.14600 106.63508 3015 ft 236 kts 247°
2026-04-30 12:25 -6.15263 106.61910 3137 ft 252 kts 247°
2026-04-30 12:26 -6.15949 106.60250 3288 ft 270 kts 247°
2026-04-30 12:26 -6.16463 106.59066 3285 ft 287 kts 246°
2026-04-30 12:26 -6.17529 106.56518 3818 ft 293 kts 248°
2026-04-30 12:26 -6.18249 106.54684 4935 ft 280 kts 248°
2026-04-30 12:27 -6.19138 106.52839 4953 ft 306 kts 233°
2026-04-30 12:27 -6.20154 106.51813 5002 ft 320 kts 215°
2026-04-30 12:27 -6.22969 106.50914 5004 ft 324 kts 176°
2026-04-30 12:27 -6.24445 106.51175 5012 ft 312 kts 161°
2026-04-30 12:28 -6.26370 106.51904 4995 ft 289 kts 152°
2026-04-30 12:28 -6.27802 106.53184 5009 ft 271 kts 118°
2026-04-30 12:28 -6.28250 106.54995 5021 ft 270 kts 89°
2026-04-30 12:28 -6.28188 106.56875 5014 ft 267 kts 86°
2026-04-30 12:29 -6.27848 106.58657 5002 ft 253 kts 72°
2026-04-30 12:29 -6.27322 106.60298 4990 ft 240 kts 72°
2026-04-30 12:29 -6.26821 106.61876 4987 ft 234 kts 72°
2026-04-30 12:29 -6.26185 106.63344 4980 ft 233 kts 51°
2026-04-30 12:30 -6.24968 106.64434 5008 ft 236 kts 38°
2026-04-30 12:30 -6.23651 106.65435 5009 ft 239 kts 38°
2026-04-30 12:30 -6.22316 106.66453 5011 ft 241 kts 38°
2026-04-30 12:30 -6.20976 106.67483 5008 ft 242 kts 38°
2026-04-30 12:31 -6.19650 106.68504 5005 ft 243 kts 38°
2026-04-30 12:31 -6.18308 106.69541 4994 ft 242 kts 39°
2026-04-30 12:31 -6.17182 106.70775 4994 ft 239 kts 55°
2026-04-30 12:31 -6.16241 106.72147 4998 ft 237 kts 56°
2026-04-30 12:32 -6.15301 106.73500 5131 ft 235 kts 55°
2026-04-30 12:32 -6.14364 106.74830 5650 ft 236 kts 54°
2026-04-30 12:32 -6.13396 106.76191 5956 ft 242 kts 54°
2026-04-30 12:32 -6.12417 106.77561 5987 ft 238 kts 54°
2026-04-30 12:33 -6.11451 106.78914 5989 ft 237 kts 55°
2026-04-30 12:33 -6.10718 106.80373 6005 ft 240 kts 74°
2026-04-30 12:33 -6.10449 106.82059 6014 ft 245 kts 86°
2026-04-30 12:33 -6.10395 106.83751 6012 ft 246 kts 88°
2026-04-30 12:34 -6.10370 106.85472 6000 ft 245 kts 88°
2026-04-30 12:34 -6.10285 106.87177 5998 ft 244 kts 77°
2026-04-30 12:34 -6.09532 106.88668 6018 ft 240 kts 46°
2026-04-30 12:34 -6.08128 106.89532 6016 ft 239 kts 15°
2026-04-30 12:35 -6.06484 106.89537 6027 ft 244 kts 344°
2026-04-30 12:35 -6.04950 106.88787 6026 ft 249 kts 322°
2026-04-30 12:35 -6.03899 106.87423 6006 ft 249 kts 292°
2026-04-30 12:35 -6.03601 106.85719 6015 ft 247 kts 272°
2026-04-30 12:36 -6.03565 106.83991 6007 ft 247 kts 271°
2026-04-30 12:36 -6.03556 106.82270 5997 ft 247 kts 271°
2026-04-30 12:36 -6.03550 106.80566 6000 ft 246 kts 270°
2026-04-30 12:36 -6.03544 106.78844 6002 ft 246 kts 270°
2026-04-30 12:37 -6.03538 106.77124 5997 ft 246 kts 270°
2026-04-30 12:37 -6.03530 106.75396 5998 ft 247 kts 271°
2026-04-30 12:37 -6.03528 106.73668 6006 ft 248 kts 270°
2026-04-30 12:37 -6.03526 106.71953 6006 ft 249 kts 271°
2026-04-30 12:38 -6.03528 106.70209 6002 ft 249 kts 271°
2026-04-30 12:38 -6.03533 106.68456 6000 ft 250 kts 270°
2026-04-30 12:38 -6.03537 106.66717 5999 ft 252 kts 270°
2026-04-30 12:38 -6.03536 106.64951 6010 ft 253 kts 271°
2026-04-30 12:39 -6.03684 106.63190 5994 ft 254 kts 255°
2026-04-30 12:39 -6.04222 106.61494 6001 ft 254 kts 251°
2026-04-30 12:39 -6.04805 106.59833 6000 ft 254 kts 251°
2026-04-30 12:39 -6.05402 106.58161 6002 ft 252 kts 250°
2026-04-30 12:40 -6.06000 106.56502 5992 ft 252 kts 251°
2026-04-30 12:40 -6.06599 106.54842 5992 ft 252 kts 250°
2026-04-30 12:40 -6.07183 106.53209 5999 ft 251 kts 250°
2026-04-30 12:40 -6.07779 106.51549 6000 ft 250 kts 251°
2026-04-30 12:41 -6.08374 106.49903 6003 ft 251 kts 250°
2026-04-30 12:41 -6.08961 106.48275 6018 ft 251 kts 250°
2026-04-30 12:41 -6.09557 106.46622 6022 ft 251 kts 251°
2026-04-30 12:41 -6.10144 106.44970 6024 ft 248 kts 251°
2026-04-30 12:42 -6.10720 106.43366 6008 ft 237 kts 250°
2026-04-30 12:42 -6.11261 106.41860 5989 ft 225 kts 250°
2026-04-30 12:42 -6.11795 106.40411 6008 ft 219 kts 245°
2026-04-30 12:42 -6.12799 106.39322 6020 ft 214 kts 205°
2026-04-30 12:43 -6.14137 106.38608 5897 ft 223 kts 212°
2026-04-30 12:43 -6.15436 106.37742 5769 ft 222 kts 214°
2026-04-30 12:43 -6.16705 106.36864 5622 ft 218 kts 214°
2026-04-30 12:43 -6.17926 106.36008 5457 ft 215 kts 214°
2026-04-30 12:44 -6.19220 106.35277 5273 ft 213 kts 192°
2026-04-30 12:44 -6.20662 106.35368 5128 ft 209 kts 155°
2026-04-30 12:44 -6.21794 106.36248 4979 ft 204 kts 127°
2026-04-30 12:44 -6.22559 106.37406 4799 ft 198 kts 120°
2026-04-30 12:45 -6.23274 106.38570 4610 ft 194 kts 120°
2026-04-30 12:45 -6.23768 106.39810 4400 ft 191 kts 89°
2026-04-30 12:45 -6.23463 106.41070 4276 ft 188 kts 71°
2026-04-30 12:45 -6.23016 106.42315 4116 ft 189 kts 70°
2026-04-30 12:46 -6.22549 106.43542 4097 ft 184 kts 69°
2026-04-30 12:46 -6.22064 106.44773 3899 ft 192 kts 68°
2026-04-30 12:46 -6.21567 106.46023 3668 ft 192 kts 68°
2026-04-30 12:46 -6.21076 106.47249 3428 ft 189 kts 68°
2026-04-30 12:47 -6.20590 106.48471 3196 ft 187 kts 69°
2026-04-30 12:47 -6.20131 106.49685 2950 ft 183 kts 71°
2026-04-30 12:47 -6.19669 106.50870 2730 ft 182 kts 67°
2026-04-30 12:47 -6.19159 106.52051 2493 ft 186 kts 65°
2026-04-30 12:48 -6.18661 106.53211 2261 ft 174 kts 70°
2026-04-30 12:48 -6.18256 106.54290 2025 ft 162 kts 71°
2026-04-30 12:48 -6.17874 106.55310 1831 ft 155 kts 69°
2026-04-30 12:48 -6.17460 106.56298 1673 ft 150 kts 65°
2026-04-30 12:49 -6.17071 106.57281 1459 ft 152 kts 69°
2026-04-30 12:49 -6.16686 106.58259 1265 ft 149 kts 68°
2026-04-30 12:49 -6.16303 106.59220 1060 ft 147 kts 69°
2026-04-30 12:49 -6.15930 106.60150 899 ft 144 kts 69°
2026-04-30 12:50 -6.15553 106.61095 716 ft 144 kts 70°
2026-04-30 12:50 -6.15169 106.62048 529 ft 153 kts 71°
2026-04-30 12:50 -6.14771 106.63021 358 ft 149 kts 71°
2026-04-30 12:50 -6.14392 106.63999 158 ft 148 kts 70°
2026-04-30 12:51 -6.14026 106.64927 38 ft 134 kts 65°
2026-04-30 12:51 -6.13736 106.65661 38 ft 90 kts 68°
2026-04-30 12:51 -6.13580 106.66050 36 ft 47 kts 67°
2026-04-30 12:51 -6.13406 106.66279 39 ft 33 kts 39°
2026-04-30 12:52 -6.13297 106.66290 37 ft 13 kts 338°
2026-04-30 12:52 -6.13213 106.66256 37 ft 13 kts 337°
2026-04-30 12:52 -6.13130 106.66225 37 ft 13 kts 339°
2026-04-30 12:52 -6.13050 106.66192 37 ft 12 kts 338°
2026-04-30 12:53 -6.12972 106.66160 37 ft 12 kts 337°
2026-04-30 12:53 -6.12897 106.66128 36 ft 12 kts 336°
2026-04-30 12:53 -6.12822 106.66100 37 ft 11 kts 339°
2026-04-30 12:53 -6.12758 106.66059 36 ft 11 kts 311°
2026-04-30 12:54 -6.12730 106.66002 37 ft 9 kts 254°
2026-04-30 12:54 -6.12764 106.65965 37 ft 6 kts 222°
2026-04-30 12:54 -6.12776 106.65955 37 ft 1 kts 223°
2026-04-30 12:54 -6.12780 106.65951 37 ft 1 kts 220°
2026-04-30 12:55 -6.12781 106.65950 37 ft 0 kts 220°